Year,Month,Day,Hour,Minute,Value (Times are PST for temperature in C)
2008,09,30,00,00,12.30
2008,09,30,00,01,12.30
2008,09,30,00,02,12.30
2008,09,30,00,03,12.30
2008,09,30,00,04,12.30
2008,09,30,00,05,12.30
2008,09,30,00,06,12.20
2008,09,30,00,07,12.20
2008,09,30,00,08,12.20
2008,09,30,00,09,12.30
2008,09,30,00,10,12.30
2008,09,30,00,11,12.30
2008,09,30,00,12,12.30
2008,09,30,00,13,12.30
2008,09,30,00,14,12.20
2008,09,30,00,15,12.20
2008,09,30,00,16,12.20
2008,09,30,00,17,12.20
2008,09,30,00,18,12.20
2008,09,30,00,19,12.20
2008,09,30,00,20,12.20
2008,09,30,00,21,12.10
2008,09,30,00,22,12.10
2008,09,30,00,23,12.10
2008,09,30,00,24,12.10
2008,09,30,00,25,12.00
2008,09,30,00,26,12.00
2008,09,30,00,27,12.00
2008,09,30,00,28,12.00
2008,09,30,00,29,12.00
2008,09,30,00,30,11.90
2008,09,30,00,31,12.00
2008,09,30,00,32,12.00
2008,09,30,00,33,12.00
2008,09,30,00,34,12.10
2008,09,30,00,35,12.10
2008,09,30,00,36,12.10
2008,09,30,00,37,12.20
2008,09,30,00,38,12.20
2008,09,30,00,39,12.20
2008,09,30,00,40,12.20
2008,09,30,00,41,12.20
2008,09,30,00,42,12.20
2008,09,30,00,43,12.20
2008,09,30,00,44,12.20
2008,09,30,00,45,12.30
2008,09,30,00,46,12.30
2008,09,30,00,47,12.40
2008,09,30,00,48,12.40
2008,09,30,00,49,12.50
2008,09,30,00,50,12.50
2008,09,30,00,51,12.50
2008,09,30,00,52,12.60
2008,09,30,00,53,12.60
2008,09,30,00,54,12.60
2008,09,30,00,55,12.60
2008,09,30,00,56,12.70
2008,09,30,00,57,12.70
2008,09,30,00,58,12.70
2008,09,30,00,59,12.70
2008,09,30,01,00,12.80
2008,09,30,01,01,12.80
2008,09,30,01,02,12.80
2008,09,30,01,03,12.80
2008,09,30,01,04,12.90
2008,09,30,01,05,12.90
2008,09,30,01,06,12.90
2008,09,30,01,07,12.80
2008,09,30,01,08,12.80
2008,09,30,01,09,12.80
2008,09,30,01,10,12.80
2008,09,30,01,11,12.70
2008,09,30,01,12,12.70
2008,09,30,01,13,12.60
2008,09,30,01,14,12.60
2008,09,30,01,15,12.60
2008,09,30,01,16,12.60
2008,09,30,01,17,12.60
2008,09,30,01,18,12.60
2008,09,30,01,19,12.60
2008,09,30,01,20,12.70
2008,09,30,01,21,12.70
2008,09,30,01,22,12.70
2008,09,30,01,23,12.70
2008,09,30,01,24,12.70
2008,09,30,01,25,12.70
2008,09,30,01,26,12.70
2008,09,30,01,27,12.60
2008,09,30,01,28,12.50
2008,09,30,01,29,12.50
2008,09,30,01,30,12.40
2008,09,30,01,31,12.30
2008,09,30,01,32,12.30
2008,09,30,01,33,12.30
2008,09,30,01,34,12.30
2008,09,30,01,35,12.20
2008,09,30,01,36,12.20
2008,09,30,01,37,12.20
2008,09,30,01,38,12.20
2008,09,30,01,39,12.20
2008,09,30,01,40,12.20
2008,09,30,01,41,12.20
2008,09,30,01,42,12.20
2008,09,30,01,43,12.20
2008,09,30,01,44,12.20
2008,09,30,01,45,12.20
2008,09,30,01,46,12.20
2008,09,30,01,47,12.30
2008,09,30,01,48,12.30
2008,09,30,01,49,12.20
2008,09,30,01,50,12.20
2008,09,30,01,51,12.20
2008,09,30,01,52,12.20
2008,09,30,01,53,12.20
2008,09,30,01,54,12.20
2008,09,30,01,55,12.30
2008,09,30,01,56,12.30
2008,09,30,01,57,12.30
2008,09,30,01,58,12.30
2008,09,30,01,59,12.30
2008,09,30,02,00,12.30
2008,09,30,02,01,12.30
2008,09,30,02,02,12.30
2008,09,30,02,03,12.30
2008,09,30,02,04,12.20
2008,09,30,02,05,12.20
2008,09,30,02,06,12.20
2008,09,30,02,07,12.20
2008,09,30,02,08,12.20
2008,09,30,02,09,12.20
2008,09,30,02,10,12.10
2008,09,30,02,11,12.10
2008,09,30,02,12,12.10
2008,09,30,02,13,12.10
2008,09,30,02,14,12.10
2008,09,30,02,15,12.10
2008,09,30,02,16,12.10
2008,09,30,02,17,12.00
2008,09,30,02,18,12.00
2008,09,30,02,19,11.90
2008,09,30,02,20,11.90
2008,09,30,02,21,11.90
2008,09,30,02,22,11.90
2008,09,30,02,23,11.80
2008,09,30,02,24,11.80
2008,09,30,02,25,11.80
2008,09,30,02,26,11.80
2008,09,30,02,27,11.70
2008,09,30,02,28,11.70
2008,09,30,02,29,11.70
2008,09,30,02,30,11.70
2008,09,30,02,31,11.60
2008,09,30,02,32,11.60
2008,09,30,02,33,11.60
2008,09,30,02,34,11.50
2008,09,30,02,35,11.50
2008,09,30,02,36,11.50
2008,09,30,02,37,11.40
2008,09,30,02,38,11.40
2008,09,30,02,39,11.40
2008,09,30,02,40,11.40
2008,09,30,02,41,11.40
2008,09,30,02,42,11.40
2008,09,30,02,43,11.40
2008,09,30,02,44,11.40
2008,09,30,02,45,11.40
2008,09,30,02,46,11.40
2008,09,30,02,47,11.50
2008,09,30,02,48,11.60
2008,09,30,02,49,11.70
2008,09,30,02,50,11.80
2008,09,30,02,51,11.90
2008,09,30,02,52,12.00
2008,09,30,02,53,12.10
2008,09,30,02,54,12.20
2008,09,30,02,55,12.30
2008,09,30,02,56,12.40
2008,09,30,02,57,12.50
2008,09,30,02,58,12.60
2008,09,30,02,59,12.60
2008,09,30,03,00,12.50
2008,09,30,03,01,12.40
2008,09,30,03,02,12.30
2008,09,30,03,03,12.20
2008,09,30,03,04,12.20
2008,09,30,03,05,12.10
2008,09,30,03,06,12.10
2008,09,30,03,07,12.00
2008,09,30,03,08,12.00
2008,09,30,03,09,11.90
2008,09,30,03,10,11.90
2008,09,30,03,11,11.90
2008,09,30,03,12,11.80
2008,09,30,03,13,11.80
2008,09,30,03,14,11.80
2008,09,30,03,15,11.80
2008,09,30,03,16,11.80
2008,09,30,03,17,11.80
2008,09,30,03,18,11.80
2008,09,30,03,19,11.80
2008,09,30,03,20,11.80
2008,09,30,03,21,11.80
2008,09,30,03,22,11.80
2008,09,30,03,23,11.80
2008,09,30,03,24,11.80
2008,09,30,03,25,11.80
2008,09,30,03,26,11.80
2008,09,30,03,27,11.70
2008,09,30,03,28,11.70
2008,09,30,03,29,11.60
2008,09,30,03,30,11.60
2008,09,30,03,31,11.50
2008,09,30,03,32,11.50
2008,09,30,03,33,11.40
2008,09,30,03,34,11.40
2008,09,30,03,35,11.40
2008,09,30,03,36,11.40
2008,09,30,03,37,11.40
2008,09,30,03,38,11.40
2008,09,30,03,39,11.40
2008,09,30,03,40,11.40
2008,09,30,03,41,11.50
2008,09,30,03,42,11.50
2008,09,30,03,43,11.60
2008,09,30,03,44,11.60
2008,09,30,03,45,11.60
2008,09,30,03,46,11.60
2008,09,30,03,47,11.60
2008,09,30,03,48,11.60
2008,09,30,03,49,11.50
2008,09,30,03,50,11.50
2008,09,30,03,51,11.40
2008,09,30,03,52,11.30
2008,09,30,03,53,11.30
2008,09,30,03,54,11.30
2008,09,30,03,55,11.40
2008,09,30,03,56,11.40
2008,09,30,03,57,11.40
2008,09,30,03,58,11.40
2008,09,30,03,59,11.30
2008,09,30,04,00,11.20
2008,09,30,04,01,11.20
2008,09,30,04,02,11.10
2008,09,30,04,03,11.10
2008,09,30,04,04,11.10
2008,09,30,04,05,11.20
2008,09,30,04,06,11.20
2008,09,30,04,07,11.20
2008,09,30,04,08,11.20
2008,09,30,04,09,11.20
2008,09,30,04,10,11.20
2008,09,30,04,11,11.20
2008,09,30,04,12,11.20
2008,09,30,04,13,11.20
2008,09,30,04,14,11.20
2008,09,30,04,15,11.30
2008,09,30,04,16,11.30
2008,09,30,04,17,11.30
2008,09,30,04,18,11.20
2008,09,30,04,19,11.20
2008,09,30,04,20,11.20
2008,09,30,04,21,11.20
2008,09,30,04,22,11.20
2008,09,30,04,23,11.20
2008,09,30,04,24,11.20
2008,09,30,04,25,11.20
2008,09,30,04,26,11.10
2008,09,30,04,27,11.10
2008,09,30,04,28,11.10
2008,09,30,04,29,11.10
2008,09,30,04,30,11.00
2008,09,30,04,31,11.00
2008,09,30,04,32,11.00
2008,09,30,04,33,11.00
2008,09,30,04,34,11.00
2008,09,30,04,35,11.10
2008,09,30,04,36,11.10
2008,09,30,04,37,11.10
2008,09,30,04,38,11.10
2008,09,30,04,39,11.10
2008,09,30,04,40,11.10
2008,09,30,04,41,11.10
2008,09,30,04,42,11.10
2008,09,30,04,43,11.00
2008,09,30,04,44,11.00
2008,09,30,04,45,11.00
2008,09,30,04,46,10.90
2008,09,30,04,47,10.90
2008,09,30,04,48,10.80
2008,09,30,04,49,10.80
2008,09,30,04,50,10.70
2008,09,30,04,51,10.70
2008,09,30,04,52,10.60
2008,09,30,04,53,10.60
2008,09,30,04,54,10.60
2008,09,30,04,55,10.60
2008,09,30,04,56,10.50
2008,09,30,04,57,10.50
2008,09,30,04,58,10.50
2008,09,30,04,59,10.50
2008,09,30,05,00,10.50
2008,09,30,05,01,10.50
2008,09,30,05,02,10.50
2008,09,30,05,03,10.50
2008,09,30,05,04,10.50
2008,09,30,05,05,10.50
2008,09,30,05,06,10.50
2008,09,30,05,07,10.50
2008,09,30,05,08,10.50
2008,09,30,05,09,10.50
2008,09,30,05,10,10.50
2008,09,30,05,11,10.50
2008,09,30,05,12,10.50
2008,09,30,05,13,10.50
2008,09,30,05,14,10.50
2008,09,30,05,15,10.50
2008,09,30,05,16,10.50
2008,09,30,05,17,10.60
2008,09,30,05,18,10.60
2008,09,30,05,19,10.60
2008,09,30,05,20,10.50
2008,09,30,05,21,10.50
2008,09,30,05,22,10.50
2008,09,30,05,23,10.50
2008,09,30,05,24,10.40
2008,09,30,05,25,10.40
2008,09,30,05,26,10.40
2008,09,30,05,27,10.40
2008,09,30,05,28,10.40
2008,09,30,05,29,10.40
2008,09,30,05,30,10.40
2008,09,30,05,31,10.40
2008,09,30,05,32,10.40
2008,09,30,05,33,10.40
2008,09,30,05,34,10.50
2008,09,30,05,35,10.50
2008,09,30,05,36,10.50
2008,09,30,05,37,10.50
2008,09,30,05,38,10.60
2008,09,30,05,39,10.60
2008,09,30,05,40,10.60
2008,09,30,05,41,10.60
2008,09,30,05,42,10.60
2008,09,30,05,43,10.60
2008,09,30,05,44,10.60
2008,09,30,05,45,10.50
2008,09,30,05,46,10.50
2008,09,30,05,47,10.50
2008,09,30,05,48,10.50
2008,09,30,05,49,10.60
2008,09,30,05,50,10.60
2008,09,30,05,51,10.70
2008,09,30,05,52,10.70
2008,09,30,05,53,10.80
2008,09,30,05,54,10.80
2008,09,30,05,55,10.80
2008,09,30,05,56,10.80
2008,09,30,05,57,10.80
2008,09,30,05,58,10.80
2008,09,30,05,59,10.80
2008,09,30,06,00,10.70
2008,09,30,06,01,10.70
2008,09,30,06,02,10.70
2008,09,30,06,03,10.60
2008,09,30,06,04,10.60
2008,09,30,06,05,10.50
2008,09,30,06,06,10.50
2008,09,30,06,07,10.40
2008,09,30,06,08,10.40
2008,09,30,06,09,10.40
2008,09,30,06,10,10.30
2008,09,30,06,11,10.30
2008,09,30,06,12,10.30
2008,09,30,06,13,10.30
2008,09,30,06,14,10.30
2008,09,30,06,15,10.20
2008,09,30,06,16,10.20
2008,09,30,06,17,10.20
2008,09,30,06,18,10.20
2008,09,30,06,19,10.20
2008,09,30,06,20,10.20
2008,09,30,06,21,10.20
2008,09,30,06,22,10.20
2008,09,30,06,23,10.20
2008,09,30,06,24,10.20
2008,09,30,06,25,10.20
2008,09,30,06,26,10.20
2008,09,30,06,27,10.20
2008,09,30,06,28,10.20
2008,09,30,06,29,10.30
2008,09,30,06,30,10.30
2008,09,30,06,31,10.30
2008,09,30,06,32,10.30
2008,09,30,06,33,10.30
2008,09,30,06,34,10.30
2008,09,30,06,35,10.30
2008,09,30,06,36,10.30
2008,09,30,06,37,10.30
2008,09,30,06,38,10.30
2008,09,30,06,39,10.40
2008,09,30,06,40,10.40
2008,09,30,06,41,10.40
2008,09,30,06,42,10.40
2008,09,30,06,43,10.40
2008,09,30,06,44,10.40
2008,09,30,06,45,10.40
2008,09,30,06,46,10.40
2008,09,30,06,47,10.40
2008,09,30,06,48,10.30
2008,09,30,06,49,10.30
2008,09,30,06,50,10.30
2008,09,30,06,51,10.30
2008,09,30,06,52,10.30
2008,09,30,06,53,10.30
2008,09,30,06,54,10.30
2008,09,30,06,55,10.30
2008,09,30,06,56,10.30
2008,09,30,06,57,10.30
2008,09,30,06,58,10.30
2008,09,30,06,59,10.20
2008,09,30,07,00,10.20
2008,09,30,07,01,10.20
2008,09,30,07,02,10.20
2008,09,30,07,03,10.20
2008,09,30,07,04,10.20
2008,09,30,07,05,10.20
2008,09,30,07,06,10.20
2008,09,30,07,07,10.20
2008,09,30,07,08,10.30
2008,09,30,07,09,10.30
2008,09,30,07,10,10.30
2008,09,30,07,11,10.40
2008,09,30,07,12,10.40
2008,09,30,07,13,10.40
2008,09,30,07,14,10.50
2008,09,30,07,15,10.50
2008,09,30,07,16,10.40
2008,09,30,07,17,10.40
2008,09,30,07,18,10.40
2008,09,30,07,19,10.40
2008,09,30,07,20,10.40
2008,09,30,07,21,10.30
2008,09,30,07,22,10.30
2008,09,30,07,23,10.30
2008,09,30,07,24,10.30
2008,09,30,07,25,10.30
2008,09,30,07,26,10.30
2008,09,30,07,27,10.20
2008,09,30,07,28,10.20
2008,09,30,07,29,10.20
2008,09,30,07,30,10.20
2008,09,30,07,31,10.30
2008,09,30,07,32,10.30
2008,09,30,07,33,10.30
2008,09,30,07,34,10.30
2008,09,30,07,35,10.30
2008,09,30,07,36,10.30
2008,09,30,07,37,10.20
2008,09,30,07,38,10.20
2008,09,30,07,39,10.20
2008,09,30,07,40,10.20
2008,09,30,07,41,10.20
2008,09,30,07,42,10.30
2008,09,30,07,43,10.30
2008,09,30,07,44,10.30
2008,09,30,07,45,10.30
2008,09,30,07,46,10.30
2008,09,30,07,47,10.40
2008,09,30,07,48,10.40
2008,09,30,07,49,10.40
2008,09,30,07,50,10.40
2008,09,30,07,51,10.40
2008,09,30,07,52,10.40
2008,09,30,07,53,10.50
2008,09,30,07,54,10.50
2008,09,30,07,55,10.50
2008,09,30,07,56,10.50
2008,09,30,07,57,10.50
2008,09,30,07,58,10.60
2008,09,30,07,59,10.60
2008,09,30,08,00,10.70
2008,09,30,08,01,10.70
2008,09,30,08,02,10.80
2008,09,30,08,03,10.90
2008,09,30,08,04,10.90
2008,09,30,08,05,11.00
2008,09,30,08,06,11.00
2008,09,30,08,07,11.10
2008,09,30,08,08,11.10
2008,09,30,08,09,11.10
2008,09,30,08,10,11.20
2008,09,30,08,11,11.20
2008,09,30,08,12,11.20
2008,09,30,08,13,11.20
2008,09,30,08,14,11.30
2008,09,30,08,15,11.30
2008,09,30,08,16,11.30
2008,09,30,08,17,11.40
2008,09,30,08,18,11.40
2008,09,30,08,19,11.50
2008,09,30,08,20,11.50
2008,09,30,08,21,11.60
2008,09,30,08,22,11.70
2008,09,30,08,23,11.80
2008,09,30,08,24,11.80
2008,09,30,08,25,11.90
2008,09,30,08,26,11.90
2008,09,30,08,27,12.00
2008,09,30,08,28,12.00
2008,09,30,08,29,12.10
2008,09,30,08,30,12.10
2008,09,30,08,31,12.10
2008,09,30,08,32,12.20
2008,09,30,08,33,12.20
2008,09,30,08,34,12.30
2008,09,30,08,35,12.30
2008,09,30,08,36,12.30
2008,09,30,08,37,12.40
2008,09,30,08,38,12.40
2008,09,30,08,39,12.50
2008,09,30,08,40,12.60
2008,09,30,08,41,12.60
2008,09,30,08,42,12.70
2008,09,30,08,43,12.70
2008,09,30,08,44,12.80
2008,09,30,08,45,12.80
2008,09,30,08,46,12.90
2008,09,30,08,47,13.00
2008,09,30,08,48,13.10
2008,09,30,08,49,13.20
2008,09,30,08,50,13.20
2008,09,30,08,51,13.30
2008,09,30,08,52,13.40
2008,09,30,08,53,13.50
2008,09,30,08,54,13.50
2008,09,30,08,55,13.60
2008,09,30,08,56,13.70
2008,09,30,08,57,13.80
2008,09,30,08,58,13.80
2008,09,30,08,59,13.90
2008,09,30,09,00,14.00
2008,09,30,09,01,14.00
2008,09,30,09,02,14.10
2008,09,30,09,03,14.20
2008,09,30,09,04,14.20
2008,09,30,09,05,14.30
2008,09,30,09,06,14.30
2008,09,30,09,07,14.30
2008,09,30,09,08,14.40
2008,09,30,09,09,14.40
2008,09,30,09,10,14.40
2008,09,30,09,11,14.40
2008,09,30,09,12,14.40
2008,09,30,09,13,14.50
2008,09,30,09,14,14.50
2008,09,30,09,15,14.60
2008,09,30,09,16,14.60
2008,09,30,09,17,14.60
2008,09,30,09,18,14.60
2008,09,30,09,19,14.70
2008,09,30,09,20,14.70
2008,09,30,09,21,14.70
2008,09,30,09,22,14.80
2008,09,30,09,23,14.80
2008,09,30,09,24,14.90
2008,09,30,09,25,15.00
2008,09,30,09,26,15.00
2008,09,30,09,27,15.00
2008,09,30,09,28,15.00
2008,09,30,09,29,15.10
2008,09,30,09,30,15.20
2008,09,30,09,31,15.20
2008,09,30,09,32,15.30
2008,09,30,09,33,15.30
2008,09,30,09,34,15.30
2008,09,30,09,35,15.30
2008,09,30,09,36,15.30
2008,09,30,09,37,15.30
2008,09,30,09,38,15.40
2008,09,30,09,39,15.40
2008,09,30,09,40,15.40
2008,09,30,09,41,15.50
2008,09,30,09,42,15.50
2008,09,30,09,43,15.40
2008,09,30,09,44,15.40
2008,09,30,09,45,15.40
2008,09,30,09,46,15.30
2008,09,30,09,47,15.30
2008,09,30,09,48,15.20
2008,09,30,09,49,15.10
2008,09,30,09,50,15.00
2008,09,30,09,51,15.00
2008,09,30,09,52,15.00
2008,09,30,09,53,15.00
2008,09,30,09,54,15.00
2008,09,30,09,55,15.00
2008,09,30,09,56,15.00
2008,09,30,09,57,15.10
2008,09,30,09,58,15.20
2008,09,30,09,59,15.20
2008,09,30,10,00,15.30
2008,09,30,10,01,15.40
2008,09,30,10,02,15.40
2008,09,30,10,03,15.50
2008,09,30,10,04,15.60
2008,09,30,10,05,15.60
2008,09,30,10,06,15.70
2008,09,30,10,07,15.80
2008,09,30,10,08,15.90
2008,09,30,10,09,15.90
2008,09,30,10,10,16.00
2008,09,30,10,11,16.10
2008,09,30,10,12,16.20
2008,09,30,10,13,16.30
2008,09,30,10,14,16.40
2008,09,30,10,15,16.40
2008,09,30,10,16,16.50
2008,09,30,10,17,16.60
2008,09,30,10,18,16.70
2008,09,30,10,19,16.70
2008,09,30,10,20,16.80
2008,09,30,10,21,16.80
2008,09,30,10,22,16.90
2008,09,30,10,23,17.00
2008,09,30,10,24,17.10
2008,09,30,10,25,17.30
2008,09,30,10,26,17.40
2008,09,30,10,27,17.50
2008,09,30,10,28,17.70
2008,09,30,10,29,17.80
2008,09,30,10,30,18.00
2008,09,30,10,31,18.10
2008,09,30,10,32,18.30
2008,09,30,10,33,18.40
2008,09,30,10,34,18.50
2008,09,30,10,35,18.70
2008,09,30,10,36,18.80
2008,09,30,10,37,18.90
2008,09,30,10,38,19.00
2008,09,30,10,39,19.10
2008,09,30,10,40,18.90
2008,09,30,10,41,18.60
2008,09,30,10,42,18.20
2008,09,30,10,43,17.90
2008,09,30,10,44,17.80
2008,09,30,10,45,17.60
2008,09,30,10,46,17.60
2008,09,30,10,47,17.60
2008,09,30,10,48,17.60
2008,09,30,10,49,17.70
2008,09,30,10,50,17.60
2008,09,30,10,51,17.50
2008,09,30,10,52,17.40
2008,09,30,10,53,17.40
2008,09,30,10,54,17.40
2008,09,30,10,55,17.40
2008,09,30,10,56,17.40
2008,09,30,10,57,17.30
2008,09,30,10,58,17.20
2008,09,30,10,59,17.10
2008,09,30,11,00,17.00
2008,09,30,11,01,16.80
2008,09,30,11,02,16.60
2008,09,30,11,03,16.50
2008,09,30,11,04,16.40
2008,09,30,11,05,16.30
2008,09,30,11,06,16.20
2008,09,30,11,07,16.20
2008,09,30,11,08,16.20
2008,09,30,11,09,16.20
2008,09,30,11,10,16.20
2008,09,30,11,11,16.30
2008,09,30,11,12,16.30
2008,09,30,11,13,16.40
2008,09,30,11,14,16.50
2008,09,30,11,15,16.60
2008,09,30,11,16,16.60
2008,09,30,11,17,16.70
2008,09,30,11,18,16.70
2008,09,30,11,19,16.80
2008,09,30,11,20,16.80
2008,09,30,11,21,16.90
2008,09,30,11,22,17.00
2008,09,30,11,23,17.00
2008,09,30,11,24,17.00
2008,09,30,11,25,17.00
2008,09,30,11,26,17.00
2008,09,30,11,27,17.10
2008,09,30,11,28,17.10
2008,09,30,11,29,17.10
2008,09,30,11,30,17.10
2008,09,30,11,31,17.20
2008,09,30,11,32,17.20
2008,09,30,11,33,17.20
2008,09,30,11,34,17.30
2008,09,30,11,35,17.30
2008,09,30,11,36,17.30
2008,09,30,11,37,17.30
2008,09,30,11,38,17.30
2008,09,30,11,39,17.40
2008,09,30,11,40,17.50
2008,09,30,11,41,17.50
2008,09,30,11,42,17.60
2008,09,30,11,43,17.60
2008,09,30,11,44,17.60
2008,09,30,11,45,17.60
2008,09,30,11,46,17.70
2008,09,30,11,47,17.70
2008,09,30,11,48,17.80
2008,09,30,11,49,17.90
2008,09,30,11,50,18.00
2008,09,30,11,51,18.10
2008,09,30,11,52,18.20
2008,09,30,11,53,18.20
2008,09,30,11,54,18.30
2008,09,30,11,55,18.40
2008,09,30,11,56,18.50
2008,09,30,11,57,18.60
2008,09,30,11,58,18.70
2008,09,30,11,59,18.80
2008,09,30,12,00,18.90
2008,09,30,12,01,19.00
2008,09,30,12,02,18.90
2008,09,30,12,03,18.80
2008,09,30,12,04,18.80
2008,09,30,12,05,18.70
2008,09,30,12,06,18.60
2008,09,30,12,07,18.60
2008,09,30,12,08,18.50
2008,09,30,12,09,18.30
2008,09,30,12,10,18.30
2008,09,30,12,11,18.10
2008,09,30,12,12,17.90
2008,09,30,12,13,17.80
2008,09,30,12,14,17.70
2008,09,30,12,15,17.60
2008,09,30,12,16,17.60
2008,09,30,12,17,17.60
2008,09,30,12,18,17.60
2008,09,30,12,19,17.60
2008,09,30,12,20,17.60
2008,09,30,12,21,17.60
2008,09,30,12,22,17.60
2008,09,30,12,23,17.50
2008,09,30,12,24,17.40
2008,09,30,12,25,17.40
2008,09,30,12,26,17.30
2008,09,30,12,27,17.30
2008,09,30,12,28,17.30
2008,09,30,12,29,17.30
2008,09,30,12,30,17.40
2008,09,30,12,31,17.40
2008,09,30,12,32,17.50
2008,09,30,12,33,17.60
2008,09,30,12,34,17.70
2008,09,30,12,35,17.80
2008,09,30,12,36,17.80
2008,09,30,12,37,17.80
2008,09,30,12,38,17.80
2008,09,30,12,39,17.70
2008,09,30,12,40,17.50
2008,09,30,12,41,17.30
2008,09,30,12,42,17.00
2008,09,30,12,43,16.90
2008,09,30,12,44,16.80
2008,09,30,12,45,16.70
2008,09,30,12,46,16.80
2008,09,30,12,47,16.80
2008,09,30,12,48,16.80
2008,09,30,12,49,16.80
2008,09,30,12,50,16.70
2008,09,30,12,51,16.70
2008,09,30,12,52,16.70
2008,09,30,12,53,16.70
2008,09,30,12,54,16.60
2008,09,30,12,55,16.40
2008,09,30,12,56,16.20
2008,09,30,12,57,16.20
2008,09,30,12,58,16.10
2008,09,30,12,59,16.00
2008,09,30,13,00,16.00
2008,09,30,13,01,16.00
2008,09,30,13,02,16.00
2008,09,30,13,03,15.90
2008,09,30,13,04,15.90
2008,09,30,13,05,16.00
2008,09,30,13,06,16.00
2008,09,30,13,07,16.00
2008,09,30,13,08,16.00
2008,09,30,13,09,16.00
2008,09,30,13,10,15.90
2008,09,30,13,11,15.80
2008,09,30,13,12,15.70
2008,09,30,13,13,15.60
2008,09,30,13,14,15.60
2008,09,30,13,15,15.60
2008,09,30,13,16,15.70
2008,09,30,13,17,15.70
2008,09,30,13,18,15.70
2008,09,30,13,19,15.80
2008,09,30,13,20,15.90
2008,09,30,13,21,16.00
2008,09,30,13,22,16.00
2008,09,30,13,23,16.10
2008,09,30,13,24,16.20
2008,09,30,13,25,16.30
2008,09,30,13,26,16.50
2008,09,30,13,27,16.50
2008,09,30,13,28,16.60
2008,09,30,13,29,16.60
2008,09,30,13,30,16.50
2008,09,30,13,31,16.50
2008,09,30,13,32,16.40
2008,09,30,13,33,16.40
2008,09,30,13,34,16.40
2008,09,30,13,35,16.40
2008,09,30,13,36,16.40
2008,09,30,13,37,16.40
2008,09,30,13,38,16.40
2008,09,30,13,39,16.40
2008,09,30,13,40,16.40
2008,09,30,13,41,16.40
2008,09,30,13,42,16.40
2008,09,30,13,43,16.30
2008,09,30,13,44,16.40
2008,09,30,13,45,16.40
2008,09,30,13,46,16.50
2008,09,30,13,47,16.60
2008,09,30,13,48,16.70
2008,09,30,13,49,16.70
2008,09,30,13,50,16.70
2008,09,30,13,51,16.70
2008,09,30,13,52,16.70
2008,09,30,13,53,16.60
2008,09,30,13,54,16.60
2008,09,30,13,55,16.60
2008,09,30,13,56,16.70
2008,09,30,13,57,16.80
2008,09,30,13,58,16.80
2008,09,30,13,59,16.80
2008,09,30,14,00,16.80
2008,09,30,14,01,16.80
2008,09,30,14,02,16.80
2008,09,30,14,03,16.80
2008,09,30,14,04,16.80
2008,09,30,14,05,16.90
2008,09,30,14,06,16.80
2008,09,30,14,07,16.70
2008,09,30,14,08,16.60
2008,09,30,14,09,16.50
2008,09,30,14,10,16.40
2008,09,30,14,11,16.30
2008,09,30,14,12,16.40
2008,09,30,14,13,16.50
2008,09,30,14,14,16.50
2008,09,30,14,15,16.30
2008,09,30,14,16,16.20
2008,09,30,14,17,16.10
2008,09,30,14,18,16.00
2008,09,30,14,19,16.00
2008,09,30,14,20,15.90
2008,09,30,14,21,15.80
2008,09,30,14,22,15.80
2008,09,30,14,23,15.80
2008,09,30,14,24,15.80
2008,09,30,14,25,15.80
2008,09,30,14,26,15.80
2008,09,30,14,27,15.80
2008,09,30,14,28,15.80
2008,09,30,14,29,15.90
2008,09,30,14,30,16.00
2008,09,30,14,31,16.10
2008,09,30,14,32,16.20
2008,09,30,14,33,16.30
2008,09,30,14,34,16.30
2008,09,30,14,35,16.40
2008,09,30,14,36,16.40
2008,09,30,14,37,16.30
2008,09,30,14,38,16.20
2008,09,30,14,39,16.20
2008,09,30,14,40,16.20
2008,09,30,14,41,16.10
2008,09,30,14,42,16.20
2008,09,30,14,43,16.20
2008,09,30,14,44,16.20
2008,09,30,14,45,16.30
2008,09,30,14,46,16.30
2008,09,30,14,47,16.30
2008,09,30,14,48,16.30
2008,09,30,14,49,16.30
2008,09,30,14,50,16.30
2008,09,30,14,51,16.40
2008,09,30,14,52,16.50
2008,09,30,14,53,16.50
2008,09,30,14,54,16.50
2008,09,30,14,55,16.40
2008,09,30,14,56,16.40
2008,09,30,14,57,16.30
2008,09,30,14,58,16.30
2008,09,30,14,59,16.20
2008,09,30,15,00,16.20
2008,09,30,15,01,16.10
2008,09,30,15,02,16.00
2008,09,30,15,03,15.90
2008,09,30,15,04,15.80
2008,09,30,15,05,15.70
2008,09,30,15,06,15.60
2008,09,30,15,07,15.50
2008,09,30,15,08,15.40
2008,09,30,15,09,15.30
2008,09,30,15,10,15.30
2008,09,30,15,11,15.30
2008,09,30,15,12,15.40
2008,09,30,15,13,15.40
2008,09,30,15,14,15.40
2008,09,30,15,15,15.50
2008,09,30,15,16,15.60
2008,09,30,15,17,15.70
2008,09,30,15,18,15.90
2008,09,30,15,19,16.00
2008,09,30,15,20,16.20
2008,09,30,15,21,16.30
2008,09,30,15,22,16.40
2008,09,30,15,23,16.50
2008,09,30,15,24,16.60
2008,09,30,15,25,16.70
2008,09,30,15,26,16.70
2008,09,30,15,27,16.80
2008,09,30,15,28,16.80
2008,09,30,15,29,16.70
2008,09,30,15,30,16.40
2008,09,30,15,31,16.30
2008,09,30,15,32,16.10
2008,09,30,15,33,16.00
2008,09,30,15,34,15.90
2008,09,30,15,35,15.90
2008,09,30,15,36,15.80
2008,09,30,15,37,15.90
2008,09,30,15,38,15.90
2008,09,30,15,39,15.90
2008,09,30,15,40,15.80
2008,09,30,15,41,15.70
2008,09,30,15,42,15.70
2008,09,30,15,43,15.60
2008,09,30,15,44,15.40
2008,09,30,15,45,15.20
2008,09,30,15,46,15.20
2008,09,30,15,47,15.20
2008,09,30,15,48,15.20
2008,09,30,15,49,15.20
2008,09,30,15,50,15.30
2008,09,30,15,51,15.30
2008,09,30,15,52,15.40
2008,09,30,15,53,15.50
2008,09,30,15,54,15.60
2008,09,30,15,55,15.60
2008,09,30,15,56,15.50
2008,09,30,15,57,15.50
2008,09,30,15,58,15.40
2008,09,30,15,59,15.40
2008,09,30,16,00,15.40
2008,09,30,16,01,15.40
2008,09,30,16,02,15.40
2008,09,30,16,03,15.40
2008,09,30,16,04,15.30
2008,09,30,16,05,15.40
2008,09,30,16,06,15.40
2008,09,30,16,07,15.40
2008,09,30,16,08,15.40
2008,09,30,16,09,15.40
2008,09,30,16,10,15.50
2008,09,30,16,11,15.50
2008,09,30,16,12,15.50
2008,09,30,16,13,15.60
2008,09,30,16,14,15.60
2008,09,30,16,15,15.60
2008,09,30,16,16,15.60
2008,09,30,16,17,15.60
2008,09,30,16,18,15.60
2008,09,30,16,19,15.60
2008,09,30,16,20,15.60
2008,09,30,16,21,15.50
2008,09,30,16,22,15.40
2008,09,30,16,23,15.30
2008,09,30,16,24,15.20
2008,09,30,16,25,15.20
2008,09,30,16,26,15.20
2008,09,30,16,27,15.10
2008,09,30,16,28,15.10
2008,09,30,16,29,15.00
2008,09,30,16,30,15.00
2008,09,30,16,31,15.00
2008,09,30,16,32,15.00
2008,09,30,16,33,15.00
2008,09,30,16,34,15.00
2008,09,30,16,35,15.00
2008,09,30,16,36,14.90
2008,09,30,16,37,14.80
2008,09,30,16,38,14.70
2008,09,30,16,39,14.70
2008,09,30,16,40,14.70
2008,09,30,16,41,14.70
2008,09,30,16,42,14.70
2008,09,30,16,43,14.60
2008,09,30,16,44,14.60
2008,09,30,16,45,14.70
2008,09,30,16,46,14.60
2008,09,30,16,47,14.60
2008,09,30,16,48,14.60
2008,09,30,16,49,14.60
2008,09,30,16,50,14.60
2008,09,30,16,51,14.70
2008,09,30,16,52,14.70
2008,09,30,16,53,14.70
2008,09,30,16,54,14.70
2008,09,30,16,55,14.70
2008,09,30,16,56,14.70
2008,09,30,16,57,14.70
2008,09,30,16,58,14.70
2008,09,30,16,59,14.70
2008,09,30,17,00,14.80
2008,09,30,17,01,14.80
2008,09,30,17,02,14.80
2008,09,30,17,03,14.90
2008,09,30,17,04,14.90
2008,09,30,17,05,15.00
2008,09,30,17,06,15.00
2008,09,30,17,07,15.00
2008,09,30,17,08,15.00
2008,09,30,17,09,15.00
2008,09,30,17,10,15.00
2008,09,30,17,11,15.00
2008,09,30,17,12,14.90
2008,09,30,17,13,14.80
2008,09,30,17,14,14.80
2008,09,30,17,15,14.80
2008,09,30,17,16,14.70
2008,09,30,17,17,14.70
2008,09,30,17,18,14.70
2008,09,30,17,19,14.60